This demonstration page uses our WeatherBlox Daily Observations layout. Learn more.

Left ArrowRight Arrow

40.92945, -100.16068

Hourly Observations for September 8, 2019

Temp ( °F °C ) Dew Point ( °F °C ) Humidity (%) Winds ( mph kmh ) Pressure ( in mb ) Visibility ( mi km ) Precip ( " mm )
12:17 am 00:17 Partly Cloudy with Mist and Fog 61 16 61 16 100 100 NE 7 11 29.91 1013 4 6 0.00 0.00
12:37 am 00:37 Mostly Cloudy with Mist and Fog 63 17 63 17 100 100 Calm 29.91 1013 5 8 0.00 0.00
12:57 am 00:57 Cloudy with Fog 63 17 63 17 100 100 ENE 5 7 29.91 1013 0 0 0.00 0.00
1:37 am 01:37 Cloudy with Fog 63 17 63 17 100 100 E 5 7 29.92 1013 0 0 0.00 0.00
1:55 am 01:55 Cloudy with Fog 63 17.1 63 17.1 100 100 E 6 9 29.93 1013 0 0 0.00 0.00
2:15 am 02:15 Cloudy with Fog 63 17.1 63 17.1 100 100 E 3 6 29.93 1013 1 1 0.00 0.00
2:35 am 02:35 Cloudy with Mist and Fog 63 17.2 63 17.2 100 100 E 5 7 29.93 1013 1 2 0.00 0.00
2:55 am 02:55 Cloudy with Mist and Fog 63 17.1 63 17.1 100 100 ENE 5 7 29.92 1013 1 2 0.00 0.00
3:15 am 03:15 Cloudy with Mist and Fog 63 17.1 63 17.1 100 100 E 6 9 29.92 1013 1 2 0.00 0.00
3:35 am 03:35 Cloudy with Mist and Fog 63 17.1 63 17.1 100 100 E 6 9 29.92 1013 1 1 0.00 0.00
3:55 am 03:55 Cloudy with Mist and Fog 62 16.9 62 16.9 100 100 NE 7 11 29.91 1013 1 1 0.00 0.00
4:15 am 04:15 Cloudy with Fog 62 16.8 62 16.8 100 100 ENE 5 7 29.92 1013 1 1 0.00 0.00
4:35 am 04:35 Cloudy with Mist and Fog 62 16.8 62 16.8 100 100 Calm 29.92 1013 1 2 0.00 0.00
4:55 am 04:55 Cloudy with Mist and Fog 63 17 63 17 100 100 Calm 29.92 1013 4 6 0.00 0.00
5:15 am 05:15 Cloudy with Mist and Fog 63 17.1 63 17.1 100 100 NE 3 6 29.92 1013 5 8 0.00 0.00
5:35 am 05:35 Cloudy with Mist and Fog 63 17.1 63 17.1 100 100 N 6 9 29.92 1013 5 8 0.00 0.00
5:55 am 05:55 Cloudy with Mist and Fog 63 17.2 63 17.2 100 100 Calm 29.94 1014 5 8 0.00 0.00
6:15 am 06:15 Cloudy with Light Rain 64 17.5 64 17.5 100 100 Calm 29.94 1014 2 3 0.00 0.00
6:35 am 06:35 Cloudy with Drizzle 64 17.5 64 17.5 100 100 Calm 29.94 1014 2 3 0.00 0.00
6:55 am 06:55 Cloudy with Drizzle 63 17.4 63 17.4 100 100 N 13 20 29.95 1014 2 3 0.00 0.00
7:15 am 07:15 Cloudy 60 15.5 59 15 97 97 NNE 9 15 29.98 1015 10 16 0.01 0.25
7:35 am 07:35 Cloudy 60 15.6 59 15.1 97 97 NNE 8 13 29.97 1015 10 16 0.01 0.25
7:55 am 07:55 Cloudy 59 15.1 57 14.1 94 94 NNE 12 19 29.97 1015 10 16 0.01 0.25
8:15 am 08:15 Cloudy 59 15 57 14 94 94 NNE 12 19 29.98 1015 10 16 0.00 0.00
8:35 am 08:35 Cloudy 59 15.2 58 14.2 94 94 NNE 7 11 29.98 1015 10 16 0.00 0.00
8:55 am 08:55 Cloudy 60 15.5 58 14.4 93 93 NNE 7 11 29.98 1015 10 16 0.00 0.00
9:15 am 09:15 Cloudy 60 15.8 56 13.6 87 87 NNE 13 20 29.98 1015 10 16 0.00 0.00
9:35 am 09:35 Cloudy 61 15.9 55 12.9 83 83 NNE 12 19 29.99 1015 10 16 0.00 0.00
9:55 am 09:55 Cloudy 62 16.5 55 13 80 80 NNE 10 17 29.97 1015 10 16 0.00 0.00
10:15 am 10:15 Mostly Cloudy 64 18 56 13.1 73 73 NNE 10 17 29.96 1015 10 16 0.00 0.00
10:35 am 10:35 Mostly Cloudy 65 18.5 55 12.9 70 70 ENE 9 15 29.96 1015 10 16 0.00 0.00
10:55 am 10:55 Cloudy 66 19.1 55 12.9 67 67 ENE 9 15 29.97 1015 10 16 0.00 0.00
11:15 am 11:15 Cloudy 68 19.8 56 13.3 66 66 ENE 10 17 29.95 1014 10 16 0.00 0.00
11:35 am 11:35 Cloudy 68 20.2 56 13.1 64 64 ENE 13 20 29.96 1015 10 16 0.00 0.00
11:55 am 11:55 Cloudy 68 20.1 55 13 64 64 E 7 11 29.96 1015 10 16 0.00 0.00
12:15 pm 12:15 Cloudy 69 20.7 56 13.2 62 62 ENE 12 19 29.95 1014 10 16 0.00 0.00
12:35 pm 12:35 Cloudy 69 20.5 56 13.5 64 64 NE 8 13 29.94 1014 10 16 0.00 0.00
12:55 pm 12:55 Cloudy 69 20.7 56 13.5 64 64 NNE 10 17 29.93 1013 10 16 0.00 0.00
1:15 pm 13:15 Cloudy 71 21.4 56 13.6 61 61 NE 10 17 29.90 1013 10 16 0.00 0.00
1:35 pm 13:35 Cloudy 71 21.8 57 14 61 61 NE 10 17 29.90 1012 10 16 0.00 0.00
1:55 pm 13:55 Cloudy 73 22.6 59 14.9 62 62 NNE 12 19 29.88 1012 10 16 0.00 0.00
2:15 pm 14:15 Partly Cloudy 73 22.9 60 15.5 63 63 NNE 9 15 29.86 1011 10 16 0.00 0.00
2:35 pm 14:35 Sunny 74 23.5 60 15.5 61 61 NE 9 15 29.85 1011 10 16 0.00 0.00
2:55 pm 14:55 Sunny 75 23.8 60 15.4 59 59 NE 6 9 29.85 1011 10 16 0.00 0.00
3:15 pm 15:15 Sunny 76 24.4 60 15.8 59 59 ENE 7 11 29.84 1010 10 16 0.00 0.00
3:35 pm 15:35 Sunny 76 24.7 61 15.9 58 58 ENE 9 15 29.82 1010 10 16 0.00 0.00
3:55 pm 15:55 Partly Cloudy 75 24.1 61 15.9 60 60 ENE 6 9 29.84 1010 10 16 0.00 0.00
4:15 pm 16:15 Cloudy 76 24.2 61 16.3 61 61 E 9 15 29.84 1010 10 16 0.00 0.00
4:35 pm 16:35 Cloudy 75 23.8 62 16.7 65 65 E 9 15 29.84 1010 10 16 0.00 0.00
4:55 pm 16:55 Cloudy 76 24.3 63 17.2 65 65 E 10 17 29.83 1010 10 16 0.00 0.00
5:15 pm 17:15 Cloudy 74 23.5 63 17.2 68 68 E 10 17 29.83 1010 10 16 0.00 0.00
5:35 pm 17:35 Cloudy 73 23 64 18 74 74 SE 12 19 29.83 1010 10 16 0.00 0.00
5:55 pm 17:55 Cloudy 73 22.5 65 18.6 79 79 ESE 14 22 29.83 1010 10 16 0.00 0.00
6:15 pm 18:15 Cloudy 71 21.9 65 18.6 82 82 SE 10 17 29.83 1010 10 16 0.00 0.00
6:35 pm 18:35 Cloudy 72 22 65 18.5 81 81 ESE 10 17 29.82 1010 10 16 0.00 0.00
6:55 pm 18:55 Mostly Cloudy 71 21.6 65 18.5 83 83 ESE 10 17 29.82 1010 10 16 0.00 0.00
7:15 pm 19:15 Partly Cloudy 70 21.3 65 18.5 84 84 ESE 12 19 29.82 1010 10 16 0.00 0.00
7:35 pm 19:35 Sunny 69 20.7 65 18.5 87 87 E 9 15 29.83 1010 10 16 0.00 0.00
7:55 pm 19:55 Sunny 68 20.1 65 18.2 89 89 E 9 15 29.83 1010 10 16 0.00 0.00
8:15 pm 20:15 Clear 67 19.6 65 18.2 92 92 E 8 13 29.84 1010 10 16 0.00 0.00
8:35 pm 20:35 Clear 66 19.1 65 18.1 94 94 E 7 11 29.84 1010 10 16 0.00 0.00
8:55 pm 20:55 Clear 66 18.8 64 18 95 95 E 7 11 29.85 1011 10 16 0.00 0.00
9:15 pm 21:15 Mostly Cloudy 66 19.1 65 18.3 95 95 E 7 11 29.86 1011 10 16 0.00 0.00
9:35 pm 21:35 Cloudy 67 19.2 65 18.5 96 96 ENE 7 11 29.87 1011 7 11 0.00 0.00
9:55 pm 21:55 Cloudy 67 19.5 65 18.5 94 94 E 9 15 29.86 1011 10 16 0.00 0.00
10:15 pm 22:15 Cloudy 67 19.5 65 18.6 95 95 E 7 11 29.88 1012 10 16 0.00 0.00
10:35 pm 22:35 Cloudy 67 19.5 66 18.7 95 95 E 8 13 29.87 1011 7 11 0.00 0.00
10:55 pm 22:55 Cloudy 67 19.5 66 18.8 96 96 E 10 17 29.87 1011 7 11 0.00 0.00
11:15 pm 23:15 Cloudy 67 19.5 66 18.7 95 95 E 9 15 29.86 1011 7 11 0.00 0.00
11:35 pm 23:35 Cloudy 67 19.5 66 19 97 97 E 12 19 29.84 1010 7 11 0.00 0.00
11:50 pm 23:50 Cloudy with Mist and Fog 67 19.5 66 19.1 98 98 E 14 22 29.84 1010 5 8 0.00 0.00

Powered by AerisWeather